Flag for U.S.A. Weather past 2 weeks in Louisville, Kentucky, U.S.A.

Now
80 °F

Passing clouds.


Feels Like: 83 °F
Forecast: 72 / 89 °F
Wind: 6 mph from East

Location: Standiford Field

Current Time: Aug 29, 2014 at 1:46:05 AM

Latest Report: Aug 29, 2014 at 12:56 AM


Visibility: 10 mi

Pressure: 30.02 "Hg

Humidity: 69%

Dew point: 69 °F

Location of LouisvilleLocation

Historic Weather in Louisville — Graph

°F

Louisville temperature yesterday

Maximum temperature yesterday: 91 °F (at 1:56 PM)
Minimum temperature yesterday: 74 °F (at 1:56 AM)
Average temperature yesterday: 81 °F

Past Weeks' High & Low Weather Summary

 TemperatureHumidityPressure
High93 °F (Aug 25, 2:56 PM)97% (Aug 17, 11:56 PM)30.12 "Hg (Aug 17, 11:56 PM)
Low62 °F (Aug 15, 6:56 AM)37% (Aug 15, 9:56 PM)29.79 "Hg (Aug 19, 4:56 PM)
Average78 °F74%29.97 "Hg
* Reported Aug 14 12:56 AM — Aug 29 12:56 AM, Louisville, Weather by CustomWeather, © 2014

Note: Actual official high and low records may vary slightly from our data, if they occured in-between our weather recording intervals... More about our weather records

Advertising

Louisville weather history for previous 24 hours

 ConditionsComfort  
Time TempWeatherWind HumidityBarometerVisibility
12:56 AM
Aug 29
80 °FPassing clouds.6 mph69%30.02 "Hg10 mi
11:56 PM
Aug 28
80 °FPassing clouds.6 mph69%30.01 "Hg10 mi
10:56 PM81 °FPassing clouds.5 mph69%30.01 "Hg10 mi
9:56 PM82 °FPassing clouds.7 mph67%30.02 "Hg10 mi
8:56 PM83 °FPassing clouds.6 mph63%30.00 "Hg10 mi
7:56 PM85 °FScattered clouds.7 mph59%29.98 "Hg10 mi
6:56 PM88 °FPassing clouds.8 mph55%29.97 "Hg10 mi
5:56 PM89 °FScattered clouds.8 mph55%29.96 "Hg10 mi
4:56 PM90 °FPartly sunny.6 mph54%29.97 "Hg10 mi
3:56 PM89 °FBroken clouds.8 mph53%29.99 "Hg10 mi
2:56 PM91 °FPartly sunny.No wind50%30.00 "Hg10 mi
1:56 PM91 °FPartly sunny.3 mph52%30.01 "Hg10 mi
12:56 PM86 °FBroken clouds.3 mph61%30.03 "Hg9 mi
11:56 AM85 °FScattered clouds.5 mph68%30.04 "Hg9 mi
10:56 AM83 °FPassing clouds.No wind70%30.05 "Hg8 mi
9:56 AM80 °FPassing clouds.No wind76%30.05 "Hg7 mi
8:56 AM77 °FHaze.7 mph85%30.06 "Hg6 mi
7:56 AM74 °FFog.3 mph91%30.04 "Hg5 mi
6:56 AM74 °FFog.No wind91%30.03 "Hg6 mi
5:56 AM74 °FFog.5 mph94%30.03 "Hg6 mi
4:56 AM75 °FFog.3 mph90%30.02 "Hg6 mi
3:56 AM74 °FFog.No wind91%30.01 "Hg6 mi
2:56 AM75 °FFog.No wind88%30.02 "Hg6 mi
1:56 AM74 °FFog.5 mph91%30.03 "Hg6 mi
Weather by CustomWeather, © 2014

See weather overviewHow to use our weather pages